Time,TemperatureF,DewpointF,PressureIn,WindDirection,WindDirectionDegrees,WindSpeedMPH,WindSpeedGustMPH,Humidity,HourlyPrecipIn,Conditions,Clouds,dailyrainin,SoftwareType,DateUTC
2013-10-04 00:01:00,39.9,32.9,30.33,ESE,110,0.0,0.0,76,0.00,CLR,SKC,0.00,WeatherDisplay:10.37,2013-10-04 06:01:00,
2013-10-04 00:06:00,39.9,33.9,30.34,ESE,110,0.0,0.0,79,0.00,CLR,SKC,0.00,WeatherDisplay:10.37,2013-10-04 06:06:00,
2013-10-04 00:12:00,39.8,33.5,30.33,ESE,110,0.0,0.0,78,0.00,CLR,SKC,0.00,WeatherDisplay:10.37,2013-10-04 06:12:00,
2013-10-04 00:17:00,39.7,33.7,30.33,ESE,110,0.0,0.0,79,0.00,CLR,SKC,0.00,WeatherDisplay:10.37,2013-10-04 06:17:00,
2013-10-04 00:22:00,39.7,33.4,30.33,ESE,110,0.0,0.0,78,0.00,CLR,SKC,0.00,WeatherDisplay:10.37,2013-10-04 06:22:00,
2013-10-04 00:27:00,39.7,33.7,30.33,ESE,110,0.0,0.0,79,0.00,CLR,SKC,0.00,WeatherDisplay:10.37,2013-10-04 06:27:00,
2013-10-04 00:32:00,39.7,34.0,30.33,ESE,110,0.0,0.0,80,0.00,CLR,SKC,0.00,WeatherDisplay:10.37,2013-10-04 06:32:00,
2013-10-04 00:37:00,39.6,33.9,30.33,ESE,110,0.0,0.0,80,0.00,CLR,SKC,0.00,WeatherDisplay:10.37,2013-10-04 06:37:00,
2013-10-04 00:43:00,39.4,33.7,30.33,ESE,110,0.0,0.0,80,0.00,CLR,SKC,0.00,WeatherDisplay:10.37,2013-10-04 06:43:00,
2013-10-04 00:48:00,39.4,34.1,30.33,ESE,110,0.0,0.0,81,0.00,CLR,SKC,0.00,WeatherDisplay:10.37,2013-10-04 06:48:00,
2013-10-04 00:53:00,39.4,34.4,30.33,ESE,110,0.0,0.0,82,0.00,CLR,SKC,0.00,WeatherDisplay:10.37,2013-10-04 06:53:00,
2013-10-04 00:58:00,39.3,34.3,30.34,ESE,110,0.0,0.0,82,0.00,CLR,SKC,0.00,WeatherDisplay:10.37,2013-10-04 06:58:00,
2013-10-04 01:03:00,39.1,34.1,30.34,ESE,110,0.0,0.0,82,0.00,CLR,SKC,0.00,WeatherDisplay:10.37,2013-10-04 07:03:00,
2013-10-04 01:08:00,39.0,34.3,30.34,ESE,110,0.0,0.0,83,0.00,CLR,SKC,0.00,WeatherDisplay:10.37,2013-10-04 07:08:00,
2013-10-04 01:13:00,38.8,33.8,30.34,ESE,110,0.0,0.0,82,0.00,CLR,SKC,0.00,WeatherDisplay:10.37,2013-10-04 07:13:00,
2013-10-04 01:19:00,38.7,34.0,30.34,ESE,110,0.0,0.0,83,0.00,CLR,SKC,0.00,WeatherDisplay:10.37,2013-10-04 07:19:00,
2013-10-04 01:24:00,38.6,33.9,30.34,ESE,110,0.0,0.0,83,0.00,CLR,SKC,0.00,WeatherDisplay:10.37,2013-10-04 07:24:00,
2013-10-04 01:29:00,38.6,33.9,30.34,ESE,110,0.0,0.0,83,0.00,CLR,SKC,0.00,WeatherDisplay:10.37,2013-10-04 07:29:00,
2013-10-04 01:34:00,38.5,34.1,30.34,ESE,110,0.0,0.0,84,0.00,CLR,SKC,0.00,WeatherDisplay:10.37,2013-10-04 07:34:00,
2013-10-04 01:39:00,38.4,34.0,30.35,ESE,110,0.0,0.0,84,0.00,CLR,SKC,0.00,WeatherDisplay:10.37,2013-10-04 07:39:00,
2013-10-04 01:43:00,38.4,34.0,30.35,ESE,110,0.0,0.0,84,0.00,CLR,SKC,0.00,WeatherDisplay:10.37,2013-10-04 07:43:00,
2013-10-04 01:48:00,38.3,34.2,30.35,ESE,110,0.0,0.0,85,0.00,CLR,SKC,0.00,WeatherDisplay:10.37,2013-10-04 07:48:00,
2013-10-04 01:53:00,38.3,33.9,30.36,ESE,110,0.0,0.0,84,0.00,CLR,SKC,0.00,WeatherDisplay:10.37,2013-10-04 07:53:00,
2013-10-04 01:58:00,38.2,34.1,30.36,ESE,110,0.0,0.0,85,0.00,CLR,SKC,0.00,WeatherDisplay:10.37,2013-10-04 07:58:00,
2013-10-04 02:06:00,38.2,34.4,30.36,ESE,110,0.0,0.0,86,0.00,CLR,SKC,0.00,WeatherDisplay:10.37,2013-10-04 08:06:00,
2013-10-04 02:11:00,38.1,34.0,30.36,ESE,110,0.0,0.0,85,0.00,CLR,SKC,0.00,WeatherDisplay:10.37,2013-10-04 08:11:00,
2013-10-04 02:16:00,38.1,34.3,30.36,ESE,110,0.0,0.0,86,0.00,CLR,SKC,0.00,WeatherDisplay:10.37,2013-10-04 08:16:00,
2013-10-04 02:21:00,38.0,34.2,30.36,ESE,110,0.0,0.0,86,0.00,CLR,SKC,0.00,WeatherDisplay:10.37,2013-10-04 08:21:00,
2013-10-04 02:27:00,37.9,33.8,30.36,ESE,110,0.0,0.0,85,0.00,CLR,SKC,0.00,WeatherDisplay:10.37,2013-10-04 08:27:00,
2013-10-04 02:32:00,37.9,33.8,30.36,ESE,110,0.0,0.0,85,0.00,CLR,SKC,0.00,WeatherDisplay:10.37,2013-10-04 08:32:00,
2013-10-04 02:37:00,37.8,33.4,30.37,ESE,110,0.0,0.0,84,0.00,CLR,SKC,0.00,WeatherDisplay:10.37,2013-10-04 08:37:00,
2013-10-04 02:42:00,37.8,33.7,30.37,ESE,110,0.0,0.0,85,0.00,CLR,SKC,0.00,WeatherDisplay:10.37,2013-10-04 08:42:00,
2013-10-04 02:47:00,37.8,33.7,30.37,ESE,110,0.0,0.0,85,0.00,CLR,SKC,0.00,WeatherDisplay:10.37,2013-10-04 08:47:00,
2013-10-04 02:52:00,37.7,33.6,30.37,ESE,110,0.0,0.0,85,0.00,CLR,SKC,0.00,WeatherDisplay:10.37,2013-10-04 08:52:00,
2013-10-04 02:57:00,37.7,33.6,30.37,ESE,110,0.0,0.0,85,0.00,CLR,SKC,0.00,WeatherDisplay:10.37,2013-10-04 08:57:00,
2013-10-04 03:02:00,37.6,33.2,30.37,ESE,110,0.0,0.0,84,0.00,CLR,SKC,0.00,WeatherDisplay:10.37,2013-10-04 09:02:00,
2013-10-04 03:07:00,37.6,33.5,30.38,ESE,110,0.0,0.0,85,0.00,CLR,SKC,0.00,WeatherDisplay:10.37,2013-10-04 09:07:00,
2013-10-04 03:12:00,37.5,33.7,30.38,ESE,110,0.0,0.0,86,0.00,CLR,SKC,0.00,WeatherDisplay:10.37,2013-10-04 09:12:00,
2013-10-04 03:17:00,37.4,33.6,30.38,ESE,110,0.0,0.0,86,0.00,CLR,SKC,0.00,WeatherDisplay:10.37,2013-10-04 09:17:00,
2013-10-04 03:22:00,37.2,33.1,30.39,ESE,110,0.0,0.0,85,0.00,CLR,SKC,0.00,WeatherDisplay:10.37,2013-10-04 09:22:00,
2013-10-04 03:27:00,37.0,32.9,30.39,ESE,110,0.0,0.0,85,0.00,CLR,SKC,0.00,WeatherDisplay:10.37,2013-10-04 09:27:00,
2013-10-04 03:32:00,36.8,32.7,30.39,ESE,110,0.0,0.0,85,0.00,CLR,SKC,0.00,WeatherDisplay:10.37,2013-10-04 09:32:00,
2013-10-04 03:37:00,36.6,32.2,30.39,ESE,110,0.0,0.0,84,0.00,CLR,SKC,0.00,WeatherDisplay:10.37,2013-10-04 09:37:00,
2013-10-04 03:42:00,36.3,32.2,30.39,ESE,110,0.0,0.0,85,0.00,CLR,SKC,0.00,WeatherDisplay:10.37,2013-10-04 09:42:00,
2013-10-04 03:47:00,36.0,31.9,30.39,ESE,110,0.0,0.0,85,0.00,CLR,SKC,0.00,WeatherDisplay:10.37,2013-10-04 09:47:00,
2013-10-04 03:52:00,35.8,31.7,30.39,ESE,110,0.0,0.0,85,0.00,CLR,SKC,0.00,WeatherDisplay:10.37,2013-10-04 09:52:00,
2013-10-04 03:57:00,35.6,31.8,30.39,ESE,110,0.0,0.0,86,0.00,CLR,SKC,0.00,WeatherDisplay:10.37,2013-10-04 09:57:00,
2013-10-04 04:02:00,35.3,31.5,30.39,ESE,110,0.0,0.0,86,0.00,CLR,SKC,0.00,WeatherDisplay:10.37,2013-10-04 10:02:00,
2013-10-04 04:07:00,34.9,31.1,30.39,ESE,110,0.0,0.0,86,0.00,CLR,SKC,0.00,WeatherDisplay:10.37,2013-10-04 10:07:00,
2013-10-04 04:13:00,34.4,30.9,30.40,ESE,110,0.0,0.0,87,0.00,CLR,SKC,0.00,WeatherDisplay:10.37,2013-10-04 10:13:00,
2013-10-04 04:18:00,34.2,30.7,30.40,ESE,110,0.0,0.0,87,0.00,CLR,SKC,0.00,WeatherDisplay:10.37,2013-10-04 10:18:00,
2013-10-04 04:23:00,34.1,30.6,30.40,ESE,110,0.0,0.0,87,0.00,CLR,SKC,0.00,WeatherDisplay:10.37,2013-10-04 10:23:00,
2013-10-04 04:28:00,33.8,30.3,30.40,ESE,110,0.0,0.0,87,0.00,CLR,SKC,0.00,WeatherDisplay:10.37,2013-10-04 10:28:00,
2013-10-04 04:33:00,33.7,30.2,30.40,ESE,110,0.0,0.0,87,0.00,CLR,SKC,0.00,WeatherDisplay:10.37,2013-10-04 10:33:00,
2013-10-04 04:38:00,33.3,30.1,30.40,ESE,110,0.0,0.0,88,0.00,CLR,SKC,0.00,WeatherDisplay:10.37,2013-10-04 10:38:00,
2013-10-04 04:43:00,32.9,29.5,30.40,ESE,110,0.0,0.0,87,0.00,CLR,SKC,0.00,WeatherDisplay:10.37,2013-10-04 10:43:00,
2013-10-04 04:48:00,32.6,29.4,30.40,ESE,110,0.0,0.0,88,0.00,CLR,SKC,0.00,WeatherDisplay:10.37,2013-10-04 10:48:00,
2013-10-04 04:53:00,32.4,29.2,30.40,ESE,110,0.0,0.0,88,0.00,CLR,SKC,0.00,WeatherDisplay:10.37,2013-10-04 10:53:00,
2013-10-04 04:58:00,32.1,28.9,30.40,ESE,110,0.0,0.0,88,0.00,CLR,SKC,0.00,WeatherDisplay:10.37,2013-10-04 10:58:00,
2013-10-04 05:03:00,31.9,29.0,30.40,ESE,110,0.0,0.0,89,0.00,CLR,SKC,0.00,WeatherDisplay:10.37,2013-10-04 11:03:00,
2013-10-04 05:08:00,31.7,28.6,30.40,ESE,110,0.0,0.0,88,0.00,CLR,SKC,0.00,WeatherDisplay:10.37,2013-10-04 11:08:00,
2013-10-04 05:13:00,31.6,28.7,30.40,ESE,110,0.0,0.0,89,0.00,CLR,SKC,0.00,WeatherDisplay:10.37,2013-10-04 11:13:00,
2013-10-04 05:18:00,31.4,28.5,30.40,ESE,110,0.0,0.0,89,0.00,CLR,SKC,0.00,WeatherDisplay:10.37,2013-10-04 11:18:00,
2013-10-04 05:23:00,31.2,28.3,30.40,ESE,110,0.0,0.0,89,0.00,CLR,SKC,0.00,WeatherDisplay:10.37,2013-10-04 11:23:00,
2013-10-04 05:28:00,31.1,28.0,30.40,ESE,110,0.0,0.0,88,0.00,CLR,SKC,0.00,WeatherDisplay:10.37,2013-10-04 11:28:00,
2013-10-04 05:34:00,30.8,27.9,30.41,ESE,110,0.0,0.0,89,0.00,CLR,SKC,0.00,WeatherDisplay:10.37,2013-10-04 11:34:00,
2013-10-04 05:39:00,30.7,27.8,30.41,ESE,110,0.0,0.0,89,0.00,CLR,SKC,0.00,WeatherDisplay:10.37,2013-10-04 11:39:00,
2013-10-04 05:44:00,30.6,27.5,30.41,ESE,110,0.0,0.0,88,0.00,CLR,SKC,0.00,WeatherDisplay:10.37,2013-10-04 11:44:00,
2013-10-04 05:49:00,30.4,27.3,30.41,ESE,110,0.0,0.0,88,0.00,CLR,SKC,0.00,WeatherDisplay:10.37,2013-10-04 11:49:00,
2013-10-04 05:54:00,30.3,27.4,30.42,ESE,110,0.0,0.0,89,0.00,CLR,SKC,0.00,WeatherDisplay:10.37,2013-10-04 11:54:00,
2013-10-04 05:59:00,30.2,27.3,30.42,ESE,110,0.0,0.0,89,0.00,CLR,SKC,0.00,WeatherDisplay:10.37,2013-10-04 11:59:00,
2013-10-04 06:04:00,30.1,27.3,30.42,ESE,110,0.0,0.0,89,0.00,CLR,SKC,0.00,WeatherDisplay:10.37,2013-10-04 12:04:00,
2013-10-04 06:09:00,29.9,27.1,30.42,ESE,110,0.0,0.0,89,0.00,CLR,SKC,0.00,WeatherDisplay:10.37,2013-10-04 12:09:00,
2013-10-04 06:14:00,29.8,27.0,30.43,ESE,110,0.0,0.0,89,0.00,CLR,SKC,0.00,WeatherDisplay:10.37,2013-10-04 12:14:00,
2013-10-04 06:20:00,29.7,27.1,30.43,ESE,110,0.0,0.0,90,0.00,CLR,SKC,0.00,WeatherDisplay:10.37,2013-10-04 12:20:00,
2013-10-04 06:24:00,29.6,27.0,30.43,ESE,110,0.0,0.0,90,0.00,CLR,SKC,0.00,WeatherDisplay:10.37,2013-10-04 12:24:00,
2013-10-04 06:29:00,29.4,26.8,30.43,ESE,110,0.0,0.0,90,0.00,CLR,SKC,0.00,WeatherDisplay:10.37,2013-10-04 12:29:00,
2013-10-04 06:34:00,29.3,26.7,30.43,ESE,110,0.0,0.0,90,0.00,CLR,SKC,0.00,WeatherDisplay:10.37,2013-10-04 12:34:00,
2013-10-04 06:39:00,29.1,26.5,30.43,ESE,110,0.0,0.0,90,0.00,CLR,SKC,0.00,WeatherDisplay:10.37,2013-10-04 12:39:00,
2013-10-04 06:44:00,29.0,26.4,30.44,ESE,110,0.0,0.0,90,0.00,CLR,SKC,0.00,WeatherDisplay:10.37,2013-10-04 12:44:00,
2013-10-04 06:49:00,29.0,26.4,30.44,ESE,110,0.0,0.0,90,0.00,CLR,SKC,0.00,WeatherDisplay:10.37,2013-10-04 12:49:00,
2013-10-04 06:54:00,28.9,26.6,30.44,ESE,110,0.0,0.0,91,0.00,CLR,SKC,0.00,WeatherDisplay:10.37,2013-10-04 12:54:00,
2013-10-04 06:59:00,28.9,26.6,30.45,ESE,110,0.0,0.0,91,0.00,CLR,SKC,0.00,WeatherDisplay:10.37,2013-10-04 12:59:00,
2013-10-04 07:04:00,28.8,26.5,30.45,ESE,110,0.0,0.0,91,0.00,CLR,SKC,0.00,WeatherDisplay:10.37,2013-10-04 13:04:00,
2013-10-04 07:09:00,28.8,26.5,30.45,ESE,110,0.0,0.0,91,0.00,CLR,SKC,0.00,WeatherDisplay:10.37,2013-10-04 13:09:00,
2013-10-04 07:14:00,28.7,26.4,30.45,ESE,110,0.0,0.0,91,0.00,CLR,SKC,0.00,WeatherDisplay:10.37,2013-10-04 13:14:00,
2013-10-04 07:19:00,28.6,26.3,30.45,ESE,110,0.0,0.0,91,0.00,CLR,SKC,0.00,WeatherDisplay:10.37,2013-10-04 13:19:00,
2013-10-04 07:24:00,28.5,26.2,30.45,ESE,110,0.0,0.0,91,0.00,CLR,SKC,0.00,WeatherDisplay:10.37,2013-10-04 13:24:00,
2013-10-04 07:29:00,28.4,26.1,30.46,ESE,110,0.0,0.0,91,0.00,CLR,SKC,0.00,WeatherDisplay:10.37,2013-10-04 13:29:00,
2013-10-04 07:34:00,28.3,26.3,30.46,ESE,110,0.0,0.0,92,0.00,CLR,SKC,0.00,WeatherDisplay:10.37,2013-10-04 13:34:00,
2013-10-04 07:39:00,28.2,26.2,30.46,ESE,110,0.0,0.0,92,0.00,CLR,SKC,0.00,WeatherDisplay:10.37,2013-10-04 13:39:00,
2013-10-04 07:45:00,28.1,26.1,30.46,ESE,110,0.0,0.0,92,0.00,CLR,SKC,0.00,WeatherDisplay:10.37,2013-10-04 13:45:00,
2013-10-04 07:50:00,28.0,26.0,30.47,ESE,110,0.0,0.0,92,0.00,CLR,SKC,0.00,WeatherDisplay:10.37,2013-10-04 13:50:00,
2013-10-04 07:55:00,27.9,25.9,30.47,ESE,110,0.0,0.0,92,0.00,CLR,SKC,0.00,WeatherDisplay:10.37,2013-10-04 13:55:00,
2013-10-04 08:00:00,27.9,25.9,30.47,ESE,110,0.0,0.0,92,0.00,CLR,SKC,0.00,WeatherDisplay:10.37,2013-10-04 14:00:00,
2013-10-04 08:05:00,27.9,25.9,30.47,ESE,110,0.0,0.0,92,0.00,CLR,SKC,0.00,WeatherDisplay:10.37,2013-10-04 14:05:00,
2013-10-04 08:10:00,27.9,25.9,30.47,ESE,110,0.0,0.0,92,0.00,CLR,SKC,0.00,WeatherDisplay:10.37,2013-10-04 14:10:00,
2013-10-04 08:15:00,28.0,26.0,30.47,ESE,110,0.0,0.0,92,0.00,CLR,SKC,0.00,WeatherDisplay:10.37,2013-10-04 14:15:00,
2013-10-04 08:20:00,28.0,26.2,30.47,ESE,110,0.0,0.0,93,0.00,CLR,SKC,0.00,WeatherDisplay:10.37,2013-10-04 14:20:00,
2013-10-04 08:25:00,28.0,26.2,30.47,ESE,110,0.0,0.0,93,0.00,CLR,SKC,0.00,WeatherDisplay:10.37,2013-10-04 14:25:00,
2013-10-04 08:30:00,28.1,26.3,30.47,ESE,110,0.0,0.0,93,0.00,CLR,SKC,0.00,WeatherDisplay:10.37,2013-10-04 14:30:00,
2013-10-04 08:35:00,28.3,26.5,30.47,ESE,110,0.0,0.0,93,0.00,CLR,SKC,0.00,WeatherDisplay:10.37,2013-10-04 14:35:00,
2013-10-04 08:40:00,28.4,26.6,30.48,ESE,110,0.0,0.0,93,0.00,CLR,SKC,0.00,WeatherDisplay:10.37,2013-10-04 14:40:00,
2013-10-04 08:46:00,28.6,26.8,30.49,ESE,110,0.0,0.0,93,0.00,CLR,SKC,0.00,WeatherDisplay:10.37,2013-10-04 14:46:00,
2013-10-04 08:51:00,28.8,27.0,30.49,ESE,110,0.0,0.0,93,0.00,CLR,SKC,0.00,WeatherDisplay:10.37,2013-10-04 14:51:00,
2013-10-04 08:56:00,29.0,27.2,30.49,ESE,110,0.0,0.0,93,0.00,CLR,SKC,0.00,WeatherDisplay:10.37,2013-10-04 14:56:00,
2013-10-04 09:01:00,29.2,27.4,30.50,ESE,110,0.0,0.0,93,0.00,CLR,SKC,0.00,WeatherDisplay:10.37,2013-10-04 15:01:00,
2013-10-04 09:06:00,29.4,27.6,30.50,ESE,110,0.0,0.0,93,0.00,CLR,SKC,0.00,WeatherDisplay:10.37,2013-10-04 15:06:00,
2013-10-04 09:11:00,29.6,27.8,30.50,ESE,110,0.0,0.0,93,0.00,CLR,SKC,0.00,WeatherDisplay:10.37,2013-10-04 15:11:00,
2013-10-04 09:16:00,29.9,28.1,30.50,ESE,110,0.0,0.0,93,0.00,CLR,SKC,0.00,WeatherDisplay:10.37,2013-10-04 15:16:00,
2013-10-04 09:18:00,30.0,28.0,30.50,ESE,110,0.0,0.0,92,0.00,CLR,SKC,0.00,WeatherDisplay:10.37,2013-10-04 15:18:00,
2013-10-04 09:23:00,30.3,28.3,30.50,ESE,110,0.0,0.0,92,0.00,CLR,SKC,0.00,WeatherDisplay:10.37,2013-10-04 15:23:00,
2013-10-04 09:29:00,30.6,28.3,30.50,ESE,110,0.0,0.0,91,0.00,CLR,SKC,0.00,WeatherDisplay:10.37,2013-10-04 15:29:00,
2013-10-04 09:34:00,31.0,28.4,30.50,ESE,110,0.0,0.0,90,0.00,CLR,SKC,0.00,WeatherDisplay:10.37,2013-10-04 15:34:00,
2013-10-04 09:39:00,31.5,28.4,30.50,ESE,110,0.0,0.0,88,0.00,CLR,SKC,0.00,WeatherDisplay:10.37,2013-10-04 15:39:00,
2013-10-04 09:44:00,32.0,28.8,30.50,ESE,110,0.0,0.0,88,0.00,CLR,SKC,0.00,WeatherDisplay:10.37,2013-10-04 15:44:00,
2013-10-04 09:49:00,32.6,28.9,30.51,ESE,110,0.0,0.0,86,0.00,CLR,SKC,0.00,WeatherDisplay:10.37,2013-10-04 15:49:00,
2013-10-04 09:54:00,33.2,29.2,30.51,ESE,110,0.0,0.0,85,0.00,CLR,SKC,0.00,WeatherDisplay:10.37,2013-10-04 15:54:00,
2013-10-04 09:59:00,33.8,29.8,30.51,ESE,110,0.0,0.0,85,0.00,CLR,SKC,0.00,WeatherDisplay:10.37,2013-10-04 15:59:00,
2013-10-04 10:04:00,34.3,29.7,30.51,ESE,110,0.0,0.1,83,0.00,CLR,SKC,0.00,WeatherDisplay:10.37,2013-10-04 16:04:00,
2013-10-04 10:09:00,34.6,29.7,30.51,ESE,110,1.1,1.1,82,0.00,CLR,SKC,0.00,WeatherDisplay:10.37,2013-10-04 16:09:00,
2013-10-04 10:14:00,34.9,30.0,30.51,ESE,110,1.1,0.0,82,0.00,CLR,SKC,0.00,WeatherDisplay:10.37,2013-10-04 16:14:00,
2013-10-04 10:19:00,35.2,29.6,30.52,ESE,110,0.0,0.0,80,0.00,CLR,SKC,0.00,WeatherDisplay:10.37,2013-10-04 16:19:00,
2013-10-04 10:24:00,35.5,29.6,30.52,NE,34,2.3,0.0,79,0.00,CLR,SKC,0.00,WeatherDisplay:10.37,2013-10-04 16:24:00,
2013-10-04 10:30:00,35.9,30.0,30.52,NE,34,1.1,1.1,79,0.00,CLR,SKC,0.00,WeatherDisplay:10.37,2013-10-04 16:30:00,
2013-10-04 10:35:00,36.2,30.0,30.52,NE,34,0.0,0.0,78,0.00,CLR,SKC,0.00,WeatherDisplay:10.37,2013-10-04 16:35:00,
2013-10-04 10:41:00,36.7,30.2,30.52,ESE,119,1.0,1.0,77,0.00,CLR,SKC,0.00,WeatherDisplay:10.37,2013-10-04 16:41:00,
2013-10-04 10:46:00,37.1,30.6,30.52,ESE,119,0.0,0.0,77,0.00,CLR,SKC,0.00,WeatherDisplay:10.37,2013-10-04 16:46:00,
2013-10-04 10:51:00,37.5,30.6,30.52,SSE,153,2.3,2.3,76,0.00,CLR,SKC,0.00,WeatherDisplay:10.37,2013-10-04 16:51:00,
2013-10-04 10:56:00,37.9,29.7,30.51,ESE,123,1.1,0.0,72,0.00,CLR,SKC,0.00,WeatherDisplay:10.37,2013-10-04 16:56:00,
2013-10-04 11:01:00,38.3,30.1,30.51,ESE,123,1.1,1.1,72,0.00,CLR,SKC,0.00,WeatherDisplay:10.37,2013-10-04 17:01:00,
2013-10-04 11:06:00,38.6,30.0,30.51,East,93,0.0,0.0,71,0.00,CLR,SKC,0.00,WeatherDisplay:10.37,2013-10-04 17:06:00,
2013-10-04 11:10:00,38.9,30.3,30.50,East,93,1.1,1.1,71,0.00,CLR,SKC,0.00,WeatherDisplay:10.37,2013-10-04 17:10:00,
2013-10-04 11:15:00,39.5,30.5,30.50,East,93,1.1,1.1,70,0.00,CLR,SKC,0.00,WeatherDisplay:10.37,2013-10-04 17:15:00,
2013-10-04 11:20:00,40.0,29.9,30.50,ENE,78,1.1,1.1,67,0.00,CLR,SKC,0.00,WeatherDisplay:10.37,2013-10-04 17:20:00,
2013-10-04 11:25:00,40.3,30.2,30.50,East,79,0.0,0.1,67,0.00,CLR,SKC,0.00,WeatherDisplay:10.37,2013-10-04 17:25:00,
2013-10-04 11:30:00,40.7,30.6,30.49,East,79,0.0,0.1,67,0.00,CLR,SKC,0.00,WeatherDisplay:10.37,2013-10-04 17:30:00,
2013-10-04 11:36:00,40.7,30.6,30.49,East,79,0.0,0.1,67,0.00,CLR,SKC,0.00,WeatherDisplay:10.37,2013-10-04 17:36:00,
2013-10-04 12:02:00,42.4,30.3,30.48,SE,134,2.3,2.3,62,0.00,CLR,SKC,0.00,WeatherDisplay:10.37,2013-10-04 18:02:00,
2013-10-04 12:07:00,43.1,29.7,30.47,South,184,2.3,2.3,59,0.00,CLR,SKC,0.00,WeatherDisplay:10.37,2013-10-04 18:07:00,
2013-10-04 12:12:00,43.6,28.5,30.47,SE,131,1.1,1.1,55,0.00,CLR,SKC,0.00,WeatherDisplay:10.37,2013-10-04 18:12:00,
2013-10-04 12:17:00,44.1,28.9,30.47,WNW,289,3.5,3.5,55,0.00,CLR,SKC,0.00,WeatherDisplay:10.37,2013-10-04 18:17:00,
2013-10-04 12:22:00,44.5,29.8,30.46,SSE,164,2.3,2.3,56,0.00,CLR,SKC,0.00,WeatherDisplay:10.37,2013-10-04 18:22:00,
2013-10-04 12:27:00,45.0,28.4,30.46,SE,128,2.3,2.3,52,0.00,CLR,SKC,0.00,WeatherDisplay:10.37,2013-10-04 18:27:00,
2013-10-04 12:32:00,45.4,28.3,30.46,South,171,3.5,3.5,51,0.00,CLR,SKC,0.00,WeatherDisplay:10.37,2013-10-04 18:32:00,
2013-10-04 12:37:00,45.5,28.4,30.45,SSW,194,1.1,1.1,51,0.00,CLR,SKC,0.00,WeatherDisplay:10.37,2013-10-04 18:37:00,
2013-10-04 12:42:00,46.0,28.4,30.45,SSW,199,1.1,0.0,50,0.00,CLR,SKC,0.00,WeatherDisplay:10.37,2013-10-04 18:42:00,
2013-10-04 12:47:00,46.4,27.8,30.45,SSW,200,1.1,1.1,48,0.00,CLR,SKC,0.00,WeatherDisplay:10.37,2013-10-04 18:47:00,
2013-10-04 12:52:00,46.9,27.2,30.45,SSE,165,1.1,1.1,46,0.00,CLR,SKC,0.00,WeatherDisplay:10.37,2013-10-04 18:52:00,
2013-10-04 12:57:00,47.0,26.2,30.45,SW,232,3.5,3.5,44,0.00,CLR,SKC,0.00,WeatherDisplay:10.37,2013-10-04 18:57:00,
2013-10-04 13:02:00,46.9,27.7,30.45,SW,215,1.1,1.1,47,0.00,CLR,SKC,0.00,WeatherDisplay:10.37,2013-10-04 19:02:00,
2013-10-04 13:07:00,47.4,26.6,30.45,South,179,1.1,1.1,44,0.00,CLR,SKC,0.00,WeatherDisplay:10.37,2013-10-04 19:07:00,
2013-10-04 13:13:00,47.9,27.6,30.44,SSW,202,3.0,3.0,45,0.00,CLR,SKC,0.00,WeatherDisplay:10.37,2013-10-04 19:13:00,
2013-10-04 13:18:00,48.5,28.1,30.44,East,101,2.3,2.3,45,0.00,CLR,SKC,0.00,WeatherDisplay:10.37,2013-10-04 19:18:00,
2013-10-04 13:23:00,48.9,27.9,30.44,South,172,2.3,2.3,44,0.00,CLR,SKC,0.00,WeatherDisplay:10.37,2013-10-04 19:23:00,
2013-10-04 13:28:00,48.8,27.3,30.44,NNW,340,3.5,3.5,43,0.00,CLR,SKC,0.00,WeatherDisplay:10.37,2013-10-04 19:28:00,
2013-10-04 13:33:00,49.0,29.1,30.44,SSW,198,0.0,0.0,46,0.00,CLR,SKC,0.00,WeatherDisplay:10.37,2013-10-04 19:33:00,
2013-10-04 13:38:00,49.5,27.9,30.43,South,187,2.3,2.3,43,0.00,CLR,SKC,0.00,WeatherDisplay:10.37,2013-10-04 19:38:00,
2013-10-04 13:43:00,49.7,27.5,30.43,East,88,2.3,2.3,42,0.00,CLR,SKC,0.00,WeatherDisplay:10.37,2013-10-04 19:43:00,
2013-10-04 13:48:00,49.7,26.9,30.43,East,79,1.1,1.1,41,0.00,CLR,SKC,0.00,WeatherDisplay:10.37,2013-10-04 19:48:00,
2013-10-04 13:53:00,49.9,28.3,30.43,SSW,202,2.3,2.3,43,0.00,CLR,SKC,0.00,WeatherDisplay:10.37,2013-10-04 19:53:00,
2013-10-04 13:58:00,49.9,27.7,30.43,SW,222,2.3,2.3,42,0.00,CLR,SKC,0.00,WeatherDisplay:10.37,2013-10-04 19:58:00,
2013-10-04 14:03:00,50.3,28.6,30.43,SSW,207,0.0,0.0,43,0.00,CLR,SKC,0.00,WeatherDisplay:10.37,2013-10-04 20:03:00,
2013-10-04 14:08:00,51.0,28.1,30.42,South,184,2.0,2.0,41,0.00,CLR,SKC,0.00,WeatherDisplay:10.37,2013-10-04 20:08:00,
2013-10-04 14:13:00,51.2,27.1,30.42,ENE,72,2.3,2.3,39,0.00,CLR,SKC,0.00,WeatherDisplay:10.37,2013-10-04 20:13:00,
2013-10-04 14:18:00,51.1,26.3,30.42,NW,316,2.3,2.3,38,0.00,CLR,SKC,0.00,WeatherDisplay:10.37,2013-10-04 20:18:00,
2013-10-04 14:23:00,51.3,27.2,30.42,NNE,23,2.3,2.3,39,0.00,CLR,SKC,0.00,WeatherDisplay:10.37,2013-10-04 20:23:00,
2013-10-04 14:28:00,51.3,26.5,30.42,NNE,15,2.3,2.3,38,0.00,CLR,SKC,0.00,WeatherDisplay:10.37,2013-10-04 20:28:00,
2013-10-04 14:33:00,51.2,27.7,30.42,NNE,15,1.1,0.0,40,0.00,CLR,SKC,0.00,WeatherDisplay:10.37,2013-10-04 20:33:00,
2013-10-04 14:38:00,51.2,27.1,30.42,NNE,26,2.3,2.3,39,0.00,CLR,SKC,0.00,WeatherDisplay:10.37,2013-10-04 20:38:00,
2013-10-04 14:43:00,51.4,27.2,30.42,NE,46,1.1,1.1,39,0.00,CLR,SKC,0.00,WeatherDisplay:10.37,2013-10-04 20:43:00,
2013-10-04 14:48:00,51.6,28.0,30.42,SSE,150,2.0,2.0,40,0.00,CLR,SKC,0.00,WeatherDisplay:10.37,2013-10-04 20:48:00,
2013-10-04 14:53:00,51.6,26.8,30.42,South,181,3.5,3.5,38,0.00,CLR,SKC,0.00,WeatherDisplay:10.37,2013-10-04 20:53:00,
2013-10-04 14:58:00,51.8,27.6,30.41,South,181,0.0,0.0,39,0.00,CLR,SKC,0.00,WeatherDisplay:10.37,2013-10-04 20:58:00,
2013-10-04 15:03:00,52.1,27.2,30.41,NE,56,1.1,0.0,38,0.00,CLR,SKC,0.00,WeatherDisplay:10.37,2013-10-04 21:03:00,
2013-10-04 15:08:00,52.2,27.3,30.41,NE,44,2.0,2.0,38,0.00,CLR,SKC,0.00,WeatherDisplay:10.37,2013-10-04 21:08:00,
2013-10-04 15:14:00,52.1,27.2,30.41,NE,55,1.1,1.1,38,0.00,CLR,SKC,0.00,WeatherDisplay:10.37,2013-10-04 21:14:00,
2013-10-04 15:19:00,52.4,26.2,30.41,East,99,1.1,1.1,36,0.00,CLR,SKC,0.00,WeatherDisplay:10.37,2013-10-04 21:19:00,
2013-10-04 15:24:00,52.5,27.6,30.40,WSW,244,3.5,3.5,38,0.00,CLR,SKC,0.00,WeatherDisplay:10.37,2013-10-04 21:24:00,
2013-10-04 15:29:00,52.6,25.7,30.40,South,175,1.1,0.0,35,0.00,CLR,SKC,0.00,WeatherDisplay:10.37,2013-10-04 21:29:00,
2013-10-04 15:34:00,52.4,26.9,30.40,South,170,1.1,1.1,37,0.00,CLR,SKC,0.00,WeatherDisplay:10.37,2013-10-04 21:34:00,
2013-10-04 15:39:00,52.4,27.5,30.40,SW,223,2.3,2.3,38,0.00,CLR,SKC,0.00,WeatherDisplay:10.37,2013-10-04 21:39:00,
2013-10-04 15:44:00,52.5,27.6,30.40,SSW,213,1.1,1.1,38,0.00,CLR,SKC,0.00,WeatherDisplay:10.37,2013-10-04 21:44:00,
2013-10-04 15:49:00,52.9,26.6,30.40,SW,223,2.3,2.3,36,0.00,CLR,SKC,0.00,WeatherDisplay:10.37,2013-10-04 21:49:00,
2013-10-04 15:53:00,52.9,26.6,30.40,North,355,1.1,0.0,36,0.00,CLR,SKC,0.00,WeatherDisplay:10.37,2013-10-04 21:53:00,
2013-10-04 15:58:00,52.8,27.9,30.40,NNE,14,1.1,1.1,38,0.00,CLR,SKC,0.00,WeatherDisplay:10.37,2013-10-04 21:58:00,
2013-10-04 16:03:00,52.7,27.1,30.40,NE,41,2.3,2.3,37,0.00,CLR,SKC,0.00,WeatherDisplay:10.37,2013-10-04 22:03:00,
2013-10-04 16:08:00,52.4,26.2,30.39,NW,317,2.3,2.3,36,0.00,CLR,SKC,0.00,WeatherDisplay:10.37,2013-10-04 22:08:00,
2013-10-04 16:13:00,52.4,27.5,30.39,NNE,28,3.0,3.0,38,0.00,CLR,SKC,0.00,WeatherDisplay:10.37,2013-10-04 22:13:00,
2013-10-04 16:19:00,52.0,26.5,30.39,NE,37,1.1,1.1,37,0.00,CLR,SKC,0.00,WeatherDisplay:10.37,2013-10-04 22:19:00,
2013-10-04 16:24:00,51.8,27.0,30.39,NE,36,0.0,0.0,38,0.00,CLR,SKC,0.00,WeatherDisplay:10.37,2013-10-04 22:24:00,
2013-10-04 16:29:00,52.2,28.0,30.39,SW,229,1.1,1.1,39,0.00,CLR,SKC,0.00,WeatherDisplay:10.37,2013-10-04 22:29:00,
2013-10-04 16:34:00,52.8,27.9,30.39,South,175,1.1,1.1,38,0.00,CLR,SKC,0.00,WeatherDisplay:10.37,2013-10-04 22:34:00,
2013-10-04 16:39:00,53.3,28.9,30.39,WSW,244,1.1,1.1,39,0.00,CLR,SKC,0.00,WeatherDisplay:10.37,2013-10-04 22:39:00,
2013-10-04 16:44:00,53.5,27.2,30.39,SW,230,1.1,1.1,36,0.00,CLR,SKC,0.00,WeatherDisplay:10.37,2013-10-04 22:44:00,
2013-10-04 16:49:00,53.9,27.5,30.39,WNW,299,2.3,2.3,36,0.00,CLR,SKC,0.00,WeatherDisplay:10.37,2013-10-04 22:49:00,
2013-10-04 16:55:00,53.9,28.2,30.38,WNW,301,0.0,0.0,37,0.00,CLR,SKC,0.00,WeatherDisplay:10.37,2013-10-04 22:55:00,
2013-10-04 17:00:00,53.4,29.7,30.38,North,10,2.3,2.3,40,0.00,CLR,SKC,0.00,WeatherDisplay:10.37,2013-10-04 23:00:00,
2013-10-04 17:05:00,52.8,29.1,30.38,NE,38,2.3,2.3,40,0.00,CLR,SKC,0.00,WeatherDisplay:10.37,2013-10-04 23:05:00,
2013-10-04 17:10:00,52.5,29.5,30.38,ENE,73,0.0,0.0,41,0.00,CLR,SKC,0.00,WeatherDisplay:10.37,2013-10-04 23:10:00,
2013-10-04 17:15:00,52.4,28.8,30.38,South,190,2.3,2.3,40,0.00,CLR,SKC,0.00,WeatherDisplay:10.37,2013-10-04 23:15:00,
2013-10-04 17:20:00,52.4,27.5,30.37,South,190,0.0,0.0,38,0.00,CLR,SKC,0.00,WeatherDisplay:10.37,2013-10-04 23:20:00,
2013-10-04 17:25:00,52.4,26.9,30.37,West,271,2.3,2.3,37,0.00,CLR,SKC,0.00,WeatherDisplay:10.37,2013-10-04 23:25:00,
2013-10-04 17:30:00,52.3,28.1,30.37,SW,227,3.5,3.5,39,0.00,CLR,SKC,0.00,WeatherDisplay:10.37,2013-10-04 23:30:00,
2013-10-04 17:35:00,52.2,29.2,30.37,SW,229,1.1,1.1,41,0.00,CLR,SKC,0.00,WeatherDisplay:10.37,2013-10-04 23:35:00,
2013-10-04 17:40:00,52.1,28.5,30.37,SW,227,0.0,0.0,40,0.00,CLR,SKC,0.00,WeatherDisplay:10.37,2013-10-04 23:40:00,
2013-10-04 17:45:00,52.0,30.7,30.37,SW,227,0.0,0.0,44,0.00,CLR,SKC,0.00,WeatherDisplay:10.37,2013-10-04 23:45:00,
2013-10-04 17:50:00,52.1,29.7,30.37,SW,227,2.0,2.0,42,0.00,CLR,SKC,0.00,WeatherDisplay:10.37,2013-10-04 23:50:00,
2013-10-04 17:55:00,52.3,27.4,30.37,SW,228,2.3,2.3,38,0.00,CLR,SKC,0.00,WeatherDisplay:10.37,2013-10-04 23:55:00,
2013-10-04 18:00:00,52.3,26.8,30.37,SW,228,1.1,1.1,37,0.00,CLR,SKC,0.00,WeatherDisplay:10.37,2013-10-05 00:00:00,
2013-10-04 18:05:00,52.1,26.6,30.37,SW,228,0.0,0.0,37,0.00,CLR,SKC,0.00,WeatherDisplay:10.37,2013-10-05 00:05:00,
2013-10-04 18:11:00,51.8,31.7,30.37,SW,228,0.0,0.0,46,0.00,CLR,SKC,0.00,WeatherDisplay:10.37,2013-10-05 00:11:00,
2013-10-04 18:16:00,51.0,34.5,30.36,SW,228,0.0,0.0,53,0.00,CLR,SKC,0.00,WeatherDisplay:10.37,2013-10-05 00:16:00,
2013-10-04 18:21:00,49.8,33.8,30.37,SW,228,0.0,0.0,54,0.00,CLR,SKC,0.00,WeatherDisplay:10.37,2013-10-05 00:21:00,
2013-10-04 18:26:00,48.8,34.2,30.37,SW,228,0.0,0.0,57,0.00,CLR,SKC,0.00,WeatherDisplay:10.37,2013-10-05 00:26:00,
2013-10-04 18:31:00,47.8,34.6,30.37,SW,228,0.0,0.0,60,0.00,CLR,SKC,0.00,WeatherDisplay:10.37,2013-10-05 00:31:00,
2013-10-04 18:36:00,47.0,33.8,30.37,SW,228,0.0,0.0,60,0.00,CLR,SKC,0.00,WeatherDisplay:10.37,2013-10-05 00:36:00,
2013-10-04 18:41:00,46.2,33.5,30.37,SW,228,0.0,0.0,61,0.00,CLR,SKC,0.00,WeatherDisplay:10.37,2013-10-05 00:41:00,
2013-10-04 18:46:00,45.4,32.7,30.37,SW,228,0.0,0.0,61,0.00,CLR,SKC,0.00,WeatherDisplay:10.37,2013-10-05 00:46:00,
2013-10-04 18:51:00,44.8,33.4,30.37,SW,228,0.0,0.0,64,0.00,CLR,SKC,0.00,WeatherDisplay:10.37,2013-10-05 00:51:00,
2013-10-04 18:56:00,44.3,31.7,30.37,SW,228,1.1,0.0,61,0.00,CLR,SKC,0.00,WeatherDisplay:10.37,2013-10-05 00:56:00,
2013-10-04 19:01:00,43.9,31.3,30.37,SSW,196,2.3,2.3,61,0.00,CLR,SKC,0.00,WeatherDisplay:10.37,2013-10-05 01:01:00,
2013-10-04 19:06:00,43.6,31.0,30.37,SSW,200,2.3,2.3,61,0.00,CLR,SKC,0.00,WeatherDisplay:10.37,2013-10-05 01:06:00,
2013-10-04 19:12:00,43.3,31.6,30.37,SSW,199,0.0,1.0,63,0.00,CLR,SKC,0.00,WeatherDisplay:10.37,2013-10-05 01:12:00,
2013-10-04 19:17:00,42.9,31.9,30.37,SSW,200,0.0,0.0,65,0.00,CLR,SKC,0.00,WeatherDisplay:10.37,2013-10-05 01:17:00,
2013-10-04 19:22:00,42.6,30.9,30.37,WSW,239,2.3,0.0,63,0.00,CLR,SKC,0.00,WeatherDisplay:10.37,2013-10-05 01:22:00,
2013-10-04 19:27:00,42.5,30.8,30.37,WSW,239,0.0,0.0,63,0.00,CLR,SKC,0.00,WeatherDisplay:10.37,2013-10-05 01:27:00,
2013-10-04 19:32:00,42.6,30.1,30.37,WSW,247,0.0,0.0,61,0.00,CLR,SKC,0.00,WeatherDisplay:10.37,2013-10-05 01:32:00,
2013-10-04 19:37:00,42.6,31.3,30.37,WSW,247,0.0,0.0,64,0.00,CLR,SKC,0.00,WeatherDisplay:10.37,2013-10-05 01:37:00,
2013-10-04 19:42:00,42.4,30.7,30.37,WSW,248,1.1,0.0,63,0.00,CLR,SKC,0.00,WeatherDisplay:10.37,2013-10-05 01:42:00,
2013-10-04 19:47:00,42.3,31.0,30.37,SW,218,1.1,0.0,64,0.00,CLR,SKC,0.00,WeatherDisplay:10.37,2013-10-05 01:47:00,
2013-10-04 19:52:00,42.2,30.5,30.37,SW,218,0.0,0.0,63,0.00,CLR,SKC,0.00,WeatherDisplay:10.37,2013-10-05 01:52:00,
2013-10-04 19:57:00,42.2,30.5,30.37,WSW,247,1.1,1.1,63,0.00,CLR,SKC,0.00,WeatherDisplay:10.37,2013-10-05 01:57:00,
2013-10-04 20:02:00,42.2,30.5,30.37,WSW,247,0.0,0.0,63,0.00,CLR,SKC,0.00,WeatherDisplay:10.37,2013-10-05 02:02:00,
2013-10-04 20:07:00,42.1,30.4,30.37,SSW,211,1.1,1.1,63,0.00,CLR,SKC,0.00,WeatherDisplay:10.37,2013-10-05 02:07:00,
2013-10-04 20:12:00,42.1,30.0,30.37,WSW,243,1.1,1.1,62,0.00,CLR,SKC,0.00,WeatherDisplay:10.37,2013-10-05 02:12:00,
2013-10-04 20:17:00,42.1,30.4,30.38,WSW,243,1.1,1.1,63,0.00,CLR,SKC,0.00,WeatherDisplay:10.37,2013-10-05 02:17:00,
2013-10-04 20:22:00,42.1,30.0,30.38,WSW,243,0.0,0.0,62,0.00,CLR,SKC,0.00,WeatherDisplay:10.37,2013-10-05 02:22:00,
2013-10-04 20:27:00,42.0,29.9,30.38,WSW,243,0.0,0.0,62,0.00,CLR,SKC,0.00,WeatherDisplay:10.37,2013-10-05 02:27:00,
2013-10-04 20:32:00,41.8,29.3,30.38,WSW,243,0.0,0.0,61,0.00,CLR,SKC,0.00,WeatherDisplay:10.37,2013-10-05 02:32:00,
2013-10-04 20:36:00,41.5,29.4,30.38,WSW,243,1.1,1.1,62,0.00,CLR,SKC,0.00,WeatherDisplay:10.37,2013-10-05 02:36:00,
2013-10-04 20:41:00,41.4,30.1,30.38,WNW,294,1.1,1.1,64,0.00,CLR,SKC,0.00,WeatherDisplay:10.37,2013-10-05 02:41:00,
2013-10-04 20:46:00,41.3,30.4,30.38,WNW,294,0.0,0.0,65,0.00,CLR,SKC,0.00,WeatherDisplay:10.37,2013-10-05 02:46:00,
2013-10-04 20:51:00,40.8,30.7,30.38,WNW,294,1.1,0.0,67,0.00,CLR,SKC,0.00,WeatherDisplay:10.37,2013-10-05 02:51:00,
2013-10-04 20:56:00,40.4,31.0,30.38,WNW,294,0.0,0.0,69,0.00,CLR,SKC,0.00,WeatherDisplay:10.37,2013-10-05 02:56:00,
2013-10-04 21:02:00,39.7,31.1,30.39,WNW,294,0.0,0.0,71,0.00,CLR,SKC,0.00,WeatherDisplay:10.37,2013-10-05 03:02:00,
2013-10-04 21:07:00,39.3,30.7,30.39,WNW,294,0.0,0.0,71,0.00,CLR,SKC,0.00,WeatherDisplay:10.37,2013-10-05 03:07:00,
2013-10-04 21:12:00,39.1,30.1,30.39,WNW,294,1.1,0.0,70,0.00,CLR,SKC,0.00,WeatherDisplay:10.37,2013-10-05 03:12:00,
2013-10-04 21:17:00,39.0,29.7,30.39,WSW,252,1.1,1.1,69,0.00,CLR,SKC,0.00,WeatherDisplay:10.37,2013-10-05 03:17:00,
2013-10-04 21:22:00,39.2,29.9,30.39,WSW,252,0.0,0.0,69,0.00,CLR,SKC,0.00,WeatherDisplay:10.37,2013-10-05 03:22:00,
2013-10-04 21:27:00,39.3,29.6,30.39,SW,235,1.1,0.0,68,0.00,CLR,SKC,0.00,WeatherDisplay:10.37,2013-10-05 03:27:00,
2013-10-04 21:32:00,39.2,29.9,30.39,SW,235,0.0,0.0,69,0.00,CLR,SKC,0.00,WeatherDisplay:10.37,2013-10-05 03:32:00,
2013-10-04 21:37:00,38.8,30.5,30.39,SW,235,2.3,2.3,72,0.00,CLR,SKC,0.00,WeatherDisplay:10.37,2013-10-05 03:37:00,
2013-10-04 21:42:00,38.2,30.3,30.39,SW,235,0.0,0.0,73,0.00,CLR,SKC,0.00,WeatherDisplay:10.37,2013-10-05 03:42:00,
2013-10-04 21:48:00,37.5,30.3,30.39,SW,235,0.0,0.0,75,0.00,CLR,SKC,0.00,WeatherDisplay:10.37,2013-10-05 03:48:00,
2013-10-04 21:53:00,37.1,30.2,30.40,SW,235,0.0,0.0,76,0.00,CLR,SKC,0.00,WeatherDisplay:10.37,2013-10-05 03:53:00,
2013-10-04 21:58:00,36.7,30.2,30.40,SW,235,0.0,0.0,77,0.00,CLR,SKC,0.00,WeatherDisplay:10.37,2013-10-05 03:58:00,
2013-10-04 22:01:00,36.6,29.7,30.40,SW,235,0.0,0.0,76,0.00,CLR,SKC,0.00,WeatherDisplay:10.37,2013-10-05 04:01:00,
2013-10-04 22:02:00,36.5,29.7,30.40,SW,235,0.0,0.0,76,0.00,CLR,SKC,0.00,WeatherDisplay:10.37,2013-10-05 04:02:00,
2013-10-04 22:03:00,36.4,30.2,30.40,SW,235,0.0,0.0,78,0.00,CLR,SKC,0.00,WeatherDisplay:10.37,2013-10-05 04:03:00,
2013-10-04 22:04:00,36.3,30.1,30.40,SW,235,0.0,0.0,78,0.00,CLR,SKC,0.00,WeatherDisplay:10.37,2013-10-05 04:04:00,
2013-10-04 22:09:00,36.1,30.2,30.40,SW,235,0.0,0.0,79,0.00,CLR,SKC,0.00,WeatherDisplay:10.37,2013-10-05 04:09:00,
2013-10-04 22:14:00,35.8,29.9,30.40,SW,235,0.0,0.0,79,0.00,CLR,SKC,0.00,WeatherDisplay:10.37,2013-10-05 04:14:00,
2013-10-04 22:20:00,35.5,29.9,30.41,SW,235,0.0,0.0,80,0.00,CLR,SKC,0.00,WeatherDisplay:10.37,2013-10-05 04:20:00,
2013-10-04 22:25:00,35.0,29.5,30.41,SW,235,0.0,0.0,80,0.00,CLR,SKC,0.00,WeatherDisplay:10.37,2013-10-05 04:25:00,
2013-10-04 22:30:00,34.5,29.0,30.41,SW,235,0.0,0.0,80,0.00,CLR,SKC,0.00,WeatherDisplay:10.37,2013-10-05 04:30:00,
2013-10-04 22:32:00,34.4,28.6,30.41,SW,235,0.0,0.0,79,0.00,CLR,SKC,0.00,WeatherDisplay:10.37,2013-10-05 04:32:00,
2013-10-04 22:37:00,34.2,28.7,30.41,SW,235,0.0,0.0,80,0.00,CLR,SKC,0.00,WeatherDisplay:10.37,2013-10-05 04:37:00,
2013-10-04 22:42:00,33.9,29.0,30.42,SW,235,0.0,0.0,82,0.00,CLR,SKC,0.00,WeatherDisplay:10.37,2013-10-05 04:42:00,
2013-10-04 22:47:00,33.6,28.7,30.42,SW,235,0.0,0.0,82,0.00,CLR,SKC,0.00,WeatherDisplay:10.37,2013-10-05 04:47:00,
2013-10-04 22:52:00,33.5,28.9,30.42,SW,235,0.0,0.0,83,0.00,CLR,SKC,0.00,WeatherDisplay:10.37,2013-10-05 04:52:00,
2013-10-04 22:57:00,33.4,29.1,30.42,SW,235,0.0,0.0,84,0.00,CLR,SKC,0.00,WeatherDisplay:10.37,2013-10-05 04:57:00,
2013-10-04 23:02:00,33.1,29.1,30.42,SW,235,0.0,0.0,85,0.00,CLR,SKC,0.00,WeatherDisplay:10.37,2013-10-05 05:02:00,
2013-10-04 23:07:00,32.8,29.1,30.42,SW,235,0.0,0.0,86,0.00,CLR,SKC,0.00,WeatherDisplay:10.37,2013-10-05 05:07:00,
2013-10-04 23:12:00,32.7,29.3,30.42,SW,235,0.0,0.0,87,0.00,CLR,SKC,0.00,WeatherDisplay:10.37,2013-10-05 05:12:00,
2013-10-04 23:17:00,32.5,29.1,30.42,SW,235,0.0,0.0,87,0.00,CLR,SKC,0.00,WeatherDisplay:10.37,2013-10-05 05:17:00,
2013-10-04 23:22:00,32.4,29.0,30.42,SW,235,0.0,0.0,87,0.00,CLR,SKC,0.00,WeatherDisplay:10.37,2013-10-05 05:22:00,
2013-10-04 23:27:00,32.5,29.1,30.42,SW,235,0.0,0.0,87,0.00,CLR,SKC,0.00,WeatherDisplay:10.37,2013-10-05 05:27:00,
2013-10-04 23:32:00,32.3,28.9,30.41,SW,235,0.0,0.0,87,0.00,CLR,SKC,0.00,WeatherDisplay:10.37,2013-10-05 05:32:00,
2013-10-04 23:38:00,32.1,28.9,30.41,SW,235,0.0,0.0,88,0.00,CLR,SKC,0.00,WeatherDisplay:10.37,2013-10-05 05:38:00,
2013-10-04 23:43:00,32.0,28.8,30.41,SW,235,0.0,0.0,88,0.00,CLR,SKC,0.00,WeatherDisplay:10.37,2013-10-05 05:43:00,
2013-10-04 23:48:00,31.9,28.8,30.42,SW,235,0.0,0.0,88,0.00,CLR,SKC,0.00,WeatherDisplay:10.37,2013-10-05 05:48:00,
2013-10-04 23:53:00,31.8,28.7,30.42,SW,235,0.0,0.0,88,0.00,CLR,SKC,0.00,WeatherDisplay:10.37,2013-10-05 05:53:00,
2013-10-04 23:58:00,31.7,28.6,30.42,SW,235,0.0,0.0,88,0.00,CLR,SKC,0.00,WeatherDisplay:10.37,2013-10-05 05:58:00,